• In Uzbekistan
  • List of Countries
  • For 7 days
  • Water Temperature
  • Satellite Maps
  • Weather Map
  • Weather Widgets
  • user-avatar
    Login

    Hourly Weather Ouahigouya

    Today, 25 June, Tuesday

    Time Temperature Precipitation Wind Pressure Humidity
    00:00 +38°C° 0 mm 7 mps 728 mmHg 30%
    01:00 +36°C° 0 mm 6 mps 728 mmHg 33%
    02:00 +36°C° 0 mm 6 mps 727 mmHg 36%
    03:00 +35°C° 0 mm 6 mps 727 mmHg 40%
    04:00 +34°C° 0 mm 6 mps 727 mmHg 42%
    05:00 +34°C° 0 mm 7 mps 728 mmHg 44%
    06:00 +33°C° 0 mm 6 mps 728 mmHg 47%
    07:00 +34°C° 0 mm 6 mps 728 mmHg 45%
    08:00 +35°C° 0 mm 6 mps 729 mmHg 44%
    09:00 +36°C° 0 mm 6 mps 730 mmHg 42%
    10:00 +39°C° 0 mm 6 mps 729 mmHg 38%
    11:00 +40°C° 0 mm 5 mps 729 mmHg 34%
    12:00 +41°C° 0 mm 4 mps 729 mmHg 29%
    13:00 +42°C° 0 mm 3 mps 728 mmHg 26%
    14:00 +41°C° 0 mm 2 mps 728 mmHg 24%
    15:00 +42°C° 0 mm 1 mps 727 mmHg 22%
    16:00 +42°C° 0 mm 2 mps 727 mmHg 21%
    17:00 +42°C° 0 mm 2 mps 727 mmHg 20%
    18:00 +43°C° 0 mm 3 mps 727 mmHg 20%
    19:00 +42°C° 0 mm 4 mps 728 mmHg 22%
    20:00 +41°C° 0 mm 4 mps 728 mmHg 24%
    21:00 +40°C° 0 mm 4 mps 728 mmHg 26%
    22:00 +39°C° 0 mm 5 mps 728 mmHg 29%
    23:00 +39°C° 0 mm 6 mps 728 mmHg 33%

    Tomorrow, 26 June, Wednesday

    Time Temperature Precipitation Wind Pressure Humidity
    00:00 +38°C° 0 mm 6 mps 729 mmHg 37%
    01:00 +36°C° 0 mm 7 mps 728 mmHg 39%
    02:00 +35°C° 0 mm 8 mps 728 mmHg 42%
    03:00 +34°C° 0 mm 8 mps 728 mmHg 45%
    04:00 +33°C° 0 mm 8 mps 728 mmHg 50%
    05:00 +32°C° 0 mm 7 mps 728 mmHg 54%
    06:00 +32°C° 0 mm 7 mps 729 mmHg 59%
    07:00 +33°C° 0 mm 7 mps 729 mmHg 56%
    08:00 +34°C° 0 mm 7 mps 730 mmHg 52%
    09:00 +35°C° 0 mm 7 mps 730 mmHg 49%
    10:00 +38°C° 0 mm 6 mps 730 mmHg 43%
    11:00 +40°C° 0 mm 6 mps 729 mmHg 36%
    12:00 +42°C° 0 mm 5 mps 729 mmHg 30%
    13:00 +42°C° 0 mm 4 mps 728 mmHg 27%
    14:00 +43°C° 0 mm 4 mps 728 mmHg 24%
    15:00 +44°C° 0 mm 3 mps 727 mmHg 21%
    16:00 +44°C° 0 mm 3 mps 727 mmHg 20%
    17:00 +44°C° 0 mm 4 mps 727 mmHg 20%
    18:00 +44°C° 0 mm 4 mps 727 mmHg 19%
    19:00 +42°C° 0.1 mm 5 mps 727 mmHg 24%
    20:00 +40°C° 0.1 mm 5 mps 728 mmHg 30%
    21:00 +36°C° 0.1 mm 5 mps 729 mmHg 35%
    22:00 +35°C° 1.9 mm 6 mps 729 mmHg 41%
    23:00 +33°C° 1.9 mm 6 mps 730 mmHg 47%

    Day after tomorrow, 27 June, Thursday

    Time Temperature Precipitation Wind Pressure Humidity
    00:00 +30°C° 1.9 mm 7 mps 730 mmHg 53%
    01:00 +31°C° 2.4 mm 8 mps 730 mmHg 55%
    02:00 +29°C° 2.4 mm 9 mps 729 mmHg 57%
    03:00 +29°C° 2.4 mm 11 mps 729 mmHg 59%
    04:00 +29°C° 0 mm 9 mps 729 mmHg 59%
    05:00 +29°C° 0 mm 7 mps 728 mmHg 58%
    06:00 +29°C° 0 mm 5 mps 728 mmHg 58%
    07:00 +30°C° 0 mm 5 mps 729 mmHg 55%
    08:00 +32°C° 0 mm 5 mps 729 mmHg 52%
    09:00 +33°C° 0 mm 5 mps 730 mmHg 49%
    10:00 +35°C° 0 mm 5 mps 730 mmHg 44%
    11:00 +36°C° 0 mm 5 mps 730 mmHg 40%
    12:00 +37°C° 0 mm 5 mps 730 mmHg 36%
    13:00 +38°C° 0 mm 4 mps 729 mmHg 33%
    14:00 +39°C° 0 mm 3 mps 729 mmHg 30%
    15:00 +40°C° 0 mm 2 mps 728 mmHg 28%
    16:00 +40°C° 0 mm 2 mps 728 mmHg 27%
    17:00 +39°C° 0 mm 3 mps 728 mmHg 27%
    18:00 +39°C° 0 mm 3 mps 728 mmHg 27%
    19:00 +39°C° 0 mm 3 mps 728 mmHg 30%
    20:00 +38°C° 0 mm 3 mps 729 mmHg 33%
    21:00 +37°C° 0 mm 4 mps 730 mmHg 36%
    22:00 +35°C° 0.6 mm 3 mps 730 mmHg 41%
    23:00 +33°C° 0.6 mm 3 mps 730 mmHg 47%

    28 June, Friday

    Time Temperature Precipitation Wind Pressure Humidity
    00:00 +30°C° 0.6 mm 2 mps 730 mmHg 52%
    01:00 +30°C° 0.8 mm 3 mps 730 mmHg 55%
    02:00 +30°C° 0.8 mm 4 mps 729 mmHg 57%
    03:00 +29°C° 0.8 mm 4 mps 729 mmHg 60%
    04:00 +30°C° 0 mm 4 mps 729 mmHg 57%
    05:00 +30°C° 0 mm 3 mps 729 mmHg 53%
    06:00 +31°C° 0 mm 3 mps 729 mmHg 50%
    07:00 +31°C° 0 mm 3 mps 729 mmHg 49%
    08:00 +33°C° 0 mm 3 mps 729 mmHg 48%
    09:00 +33°C° 0 mm 4 mps 730 mmHg 47%
    10:00 +34°C° 0 mm 4 mps 730 mmHg 44%
    11:00 +35°C° 0 mm 4 mps 730 mmHg 41%
    12:00 +36°C° 0 mm 3 mps 730 mmHg 39%
    13:00 +36°C° 0 mm 3 mps 729 mmHg 36%
    14:00 +37°C° 0 mm 3 mps 728 mmHg 33%
    15:00 +38°C° 0 mm 3 mps 728 mmHg 30%
    16:00 +38°C° 0 mm 3 mps 728 mmHg 30%
    17:00 +38°C° 0 mm 3 mps 727 mmHg 30%
    18:00 +38°C° 0 mm 3 mps 727 mmHg 30%
    19:00 +37°C° 0 mm 3 mps 728 mmHg 33%
    20:00 +36°C° 0 mm 3 mps 728 mmHg 35%
    21:00 +36°C° 0 mm 3 mps 728 mmHg 38%
    22:00 +35°C° 0 mm 3 mps 728 mmHg 40%
    23:00 +35°C° 0 mm 4 mps 729 mmHg 42%

    29 June, Saturday

    Time Temperature Precipitation Wind Pressure Humidity
    00:00 +34°C° 0 mm 4 mps 729 mmHg 44%
    01:00 +34°C° 0 mm 4 mps 729 mmHg 46%
    02:00 +33°C° 0 mm 5 mps 728 mmHg 47%
    03:00 +33°C° 0 mm 5 mps 728 mmHg 49%
    04:00 +32°C° 0 mm 5 mps 728 mmHg 52%
    05:00 +32°C° 0 mm 4 mps 729 mmHg 55%
    06:00 +30°C° 0 mm 4 mps 729 mmHg 58%
    07:00 +32°C° 0 mm 4 mps 729 mmHg 56%
    08:00 +33°C° 0 mm 5 mps 730 mmHg 54%
    09:00 +34°C° 0 mm 5 mps 730 mmHg 52%
    10:00 +34°C° 0.6 mm 5 mps 730 mmHg 52%
    11:00 +34°C° 0.6 mm 5 mps 730 mmHg 51%
    12:00 +34°C° 0.6 mm 5 mps 730 mmHg 50%
    13:00 +34°C° 1 mm 4 mps 730 mmHg 52%
    14:00 +33°C° 1 mm 4 mps 729 mmHg 53%
    15:00 +33°C° 1 mm 3 mps 728 mmHg 55%
    16:00 +33°C° 0 mm 4 mps 728 mmHg 51%
    17:00 +33°C° 0 mm 5 mps 728 mmHg 48%
    18:00 +34°C° 0 mm 6 mps 728 mmHg 44%
    19:00 +33°C° 0 mm 5 mps 729 mmHg 48%
    20:00 +32°C° 0 mm 5 mps 729 mmHg 52%
    21:00 +30°C° 0 mm 4 mps 730 mmHg 57%
    22:00 +29°C° 0 mm 4 mps 730 mmHg 59%
    23:00 +29°C° 0 mm 5 mps 730 mmHg 62%

    30 June, Sunday

    Time Temperature Precipitation Wind Pressure Humidity
    00:00 +29°C° 0 mm 5 mps 730 mmHg 64%
    01:00 +29°C° 0 mm 4 mps 730 mmHg 65%
    02:00 +28°C° 0 mm 3 mps 730 mmHg 66%
    03:00 +28°C° 0 mm 3 mps 730 mmHg 67%
    04:00 +28°C° 0 mm 3 mps 730 mmHg 68%
    05:00 +28°C° 0 mm 3 mps 730 mmHg 69%
    06:00 +28°C° 0 mm 3 mps 731 mmHg 70%
    07:00 +29°C° 0 mm 3 mps 731 mmHg 67%
    08:00 +29°C° 0 mm 3 mps 731 mmHg 63%
    09:00 +30°C° 0 mm 4 mps 732 mmHg 59%
    10:00 +33°C° 0 mm 4 mps 732 mmHg 54%
    11:00 +34°C° 0 mm 4 mps 731 mmHg 49%
    12:00 +36°C° 0 mm 5 mps 731 mmHg 44%
    13:00 +36°C° 0 mm 5 mps 730 mmHg 42%
    14:00 +37°C° 0 mm 5 mps 730 mmHg 40%
    15:00 +38°C° 0 mm 4 mps 729 mmHg 37%
    16:00 +38°C° 0 mm 4 mps 729 mmHg 38%
    17:00 +37°C° 0 mm 4 mps 729 mmHg 38%
    18:00 +37°C° 0 mm 4 mps 729 mmHg 39%
    19:00 +36°C° 0 mm 4 mps 729 mmHg 42%
    20:00 +36°C° 0 mm 4 mps 730 mmHg 45%
    21:00 +35°C° 0 mm 4 mps 730 mmHg 48%
    22:00 +34°C° 0 mm 4 mps 730 mmHg 50%
    23:00 +34°C° 0 mm 4 mps 730 mmHg 52%
    Show more